Regional Weather Roundup
Issued by NWS Newport/Morehead, NC

Current Version | Previous Version | Text Only | Print | Product List | Glossary On
Versions: 1 2 3 4 5 6 7 8 9 10 11 12 13 14 15 16 17 18 19 20 21 22 23 24 25 26 27 28 29 30 31 32 33 34 35 36 37 38 39 40 41 42 43 44 45 46 47 48 49 50
000
ASUS42 KMHX 280625
RWRMHX
WEATHER ROUNDUP FOR EASTERN NORTH CAROLINA
NATIONAL WEATHER SERVICE NEWPORT/MOREHEAD CITY NC
200 AM EDT SUN AUG 28 2016

NOTE: "FAIR" INDICATES FEW OR NO CLOUDS BELOW 12,000 FEET
WITH NO SIGNIFICANT WEATHER AND/OR OBSTRUCTIONS TO VISIBILITY

NCZ015>017-031-032-045>047-102-103-280700-
NORTH COAST

CITY           SKY/WX    TMP DP  RH WIND       PRES   REMARKS
EDENTON        CLEAR    N/A N/A N/A CALM      30.14F
ELIZABETH CITY PTCLDY    77  75  93 NE9       30.14F
KITTY HAWK     MOCLDY    78  78  99 NE5       30.11F
MANTEO         MOCLDY    78  76  95 NE8       30.13F

$$

NCZ045>047-081-094-103-104-280700-
CENTRAL COAST

CITY           SKY/WX    TMP DP  RH WIND       PRES   REMARKS
FRISCO         CLOUDY    80  76  87 E6        30.11F

$$

NCZ095-097-098-100-101-280700-
SOUTHERN COAST

CITY           SKY/WX    TMP DP  RH WIND       PRES   REMARKS
BEAUFORT       PTCLDY    77  76  96 N5        30.11S
CEDAR ISLAND   NOT AVBL
JACKSONVILLE   CLOUDY    78  75  90 N5        30.11S
PINEY ISLAND   NOT AVBL
WILMINGTON     CLEAR     76  74  93 CALM      30.11S


$$

NCZ011>013-027>030-043-044-078>080-089-090>093-098-280700-
COASTAL PLAIN

CITY           SKY/WX    TMP DP  RH WIND       PRES   REMARKS
AHOSKIE        CLEAR     70  68  94 CALM      30.16S
CLINTON        CLEAR     76  76 100 CALM      30.13F
ELIZABETHTOWN  PTCLDY    75  74  98 CALM      30.12F
GOLDSBORO      CLEAR     76  76 100 CALM      30.12F
GREENVILLE     CLEAR     72  72 100 CALM      30.15S FOG
HAVELOCK       CLOUDY    79  76  90 NE8       30.12S
KENANSVILLE    CLOUDY    73  73 100 CALM      30.13F FOG
KINSTON        CLEAR     76  74  93 NE3       30.14S
NEW BERN       CLOUDY    78  75  90 NE6       30.13F
RICHLANDS      FOG       73  73 100 N3        30.13S VSB<1/4
ROCKY MOUNT    CLEAR     72  71  97 CALM      30.15F
WASHINGTON     CLEAR     74  73  96 NE3       30.14S
WHITEVILLE     CLEAR     76  74  95 CALM      30.11F

$$

AMZ130-135-150-152-154-156-158-170-250-252-270-ANZ085-086-088-633-658-670-280700-
MARINE OBSERVATIONS

STATION/POSITION TIME  TEMP    WIND        PRES    WAVE   SWELL
                       AIR SEA DIR/SP/G            HT/PER HT/PER
                 (UTC) (F)     (DEG/KT/KT) (MB)    (FT/S) (FT/S)
CHESAPEAKE LIGHT NOT AVBL
64 E VA BEACH    0550   81 81   50/ 17/ 19 1019.8    4/ 5   2/ 8
DUCK             0600   79 79   50/ 12/ 14 1019.5
2 E DUCK         0511      79                N/A     4/ 5
OREGON INLET     0600   79 79   30/  8/ 11 1019.8
13E OREGON INLT  0500      82                N/A     4/ 4   3/ 4
HATTERAS CG      0600   80 84   30/  8/ 11 1019.4
DIAMOND BUOY     0550   77 84  330/ 12/ 16 1019.5    3/ 9   3/ 9
CAPE LOOKOUT     0600   82      50/ 11/ 12 1019.1
BEAUFORT LAB     0600   79 82   10/  5/  5 1018.9
30 SE NEW RVR IN 0608   80 84  110/  8/ 10 1019.3
30 SE NEW RVR IN 0525      84                N/A     3/ 8
27 SE WRIGHTSVLE 0608   83 85   70/  4/  8 1019.1
5 SE WRIGHTSVLE  0508   83 84   70/  6/ 10 1020.5
225 S CAPE HAT   0550   82 84   60/ 10/ 14 1017.1    4/ 8   3/ 8
41 SE CHARLESTON 0550   83 84   60/ 10/ 12 1017.7    4/ 8   3/ 8

$$




USA.gov is the U.S. government's official web portal to all federal, state and local government web resources and services.